weather.gov     
National Weather Service

Terminal Aerodrome Forecast
NWS Homepage
This page is being discontinued on March 12, 2014.
The same data is available at this site. Please update your bookmarks.
Thank you, and we apologize for the inconvenience.
Please send an email to SR-SRH.Webmaster@noaa.gov with any concerns.


Current Version
Previous Version:    01  02  03  04  05  06  07  08  09  10  11  12  13  14  15  16  17  18  19  20  21  22  23  24  25  26  27  28  29  30  
   31  32  33  34  35  36  37  38  39  
[Printable]
287
FTUS41 KCLE 020500
TAFTOL
TAF
KTOL 020520Z 0206/0306 22007KT P6SM SCT045 BKN250
      TEMPO 0206/0210 BKN045
     FM021000 23007KT 6SM -SHRA OVC035
      TEMPO 0210/0214 5SM -SHRA BR OVC015
     FM021400 25010KT P6SM BKN015 BKN080
     FM021700 25011KT P6SM SCT080 BKN250
     FM022100 25008KT P6SM SCT250
     FM030200 25003KT 5SM HZ SCT250=


U.S. Dept. of Commerce
NOAA National Weather Service
1325 East West Highway
Silver Spring, MD 20910
E-mail: w-nws.webmaster@noaa.gov
Page last modified: May 16, 2007
NATIONAL WEATHER SERVICE: for Safety, for Work, for Fun - FOR LIFE